Cherry Point, NC

5:46 PM EDT on April 24, 2017 (GMT -0400)
Cherry Point Marine Corps Air Station

Weather History for KNKT - March, 2013

Change the Weather History Date:

Saturday, March 9, 2013

  Actual Average Record
Temperature  
Mean Temperature 50 °F -  
Max Temperature 62 °F 59 °F 84 °F (2009)
Min Temperature 37 °F 39 °F 28 °F (1999)
Degree Days  
Heating Degree Days 14    
Moisture  
Dew Point 30 °F    
Average Humidity 51    
Maximum Humidity 82    
Minimum Humidity 27    
Precipitation  
Precipitation 0.00 in - - ()
Sea Level Pressure  
Sea Level Pressure 30.25 in    
Wind  
Wind Speed 10 mph ()    
Max Wind Speed 18 mph    
Max Gust Speed 24 mph    
Visibility 10.0 miles    
Events      
Averages and records for this station are not official NWS values.
T = Trace of Precipitation, MM = Missing Value Source: Averaged Metar Reports

Daily Weather History Graph

Daily Weather History Graph

Search for Another Location

Airport or City:

Trip Planner

Search our weather history database for the weather conditions in past years. The results will help you decide how hot, cold, wet, or windy it might be!

Date:

Astronomy

Mar. 09, 2013 Rise Set
Actual Time 6:26 AM EST 6:10 PM EST
Civil Twilight 6:00 AM EST 6:35 PM EST
Nautical Twilight 5:31 AM EST 7:04 PM EST
Astronomical Twilight 5:02 AM EST 7:34 PM EST
Moon 4:44 AM EST (3/9) 4:13 PM EST (3/9)
Length of Visible Light 12h 34m
Length of Day
11h 44m
Waning Crescent, 5% of the Moon is Illuminated
Mar 9
Waning Crescent
Mar 11
New
Mar 19
First Quarter
Mar 27
Full
Apr 3
Last Quarter

Hourly Weather History & Observations

Time (EST) Temp. Windchill Dew Point Humidity Pressure Visibility Wind Dir Wind Speed Gust Speed Precip Events Conditions
12:54 AM 44.1 °F 37.4 °F 28.0 °F 53% 30.21 in 10.0 mi North 13.8 mph - N/A   Clear
1:54 AM 43.0 °F 36.4 °F 28.0 °F 56% 30.21 in 10.0 mi NNW 12.7 mph - N/A   Clear
2:54 AM 42.1 °F 35.7 °F 28.0 °F 58% 30.21 in 10.0 mi NW 11.5 mph - N/A   Clear
3:54 AM 41.0 °F 33.9 °F 28.0 °F 60% 30.21 in 10.0 mi NW 12.7 mph - N/A   Clear
4:54 AM 41.0 °F 32.2 °F 28.0 °F 60% 30.22 in 10.0 mi NNW 18.4 mph - N/A   Clear
5:54 AM 39.9 °F 32.1 °F 28.0 °F 63% 30.23 in 10.0 mi NNW 13.8 mph - N/A   Clear
6:54 AM 39.9 °F 32.1 °F 28.0 °F 63% 30.26 in 10.0 mi North 13.8 mph - N/A   Clear
7:54 AM 43.0 °F 34.8 °F 28.0 °F 56% 30.26 in 10.0 mi North 18.4 mph 24.2 mph N/A   Clear
8:54 AM 46.0 °F 39.9 °F 27.0 °F 47% 30.27 in 10.0 mi North 13.8 mph - N/A   Clear
9:54 AM 51.1 °F - 26.1 °F 38% 30.27 in 10.0 mi North 11.5 mph - N/A   Clear
10:54 AM 55.0 °F - 27.0 °F 34% 30.26 in 10.0 mi North 13.8 mph 24.2 mph N/A   Clear
11:54 AM 57.2 °F - 28.4 °F 33% 30.26 in 10.0 mi NNE 13.8 mph 24.2 mph N/A   Smoke
12:54 PM 60.1 °F - 30.0 °F 32% 30.25 in 10.0 mi NNW 12.7 mph - N/A   Smoke
1:54 PM 62.6 °F - 30.2 °F 30% 30.23 in 10.0 mi North 11.5 mph 19.6 mph N/A   Smoke
2:54 PM 62.6 °F - 28.4 °F 27% 30.22 in 10.0 mi NE 13.8 mph - N/A   Smoke
3:54 PM 62.1 °F - 28.9 °F 29% 30.22 in 10.0 mi NNW 10.4 mph - N/A   Smoke
4:54 PM 61.0 °F - 28.9 °F 30% 30.22 in 10.0 mi NE 9.2 mph - N/A   Smoke
5:54 PM 57.0 °F - 32.0 °F 39% 30.24 in 10.0 mi NE 5.8 mph - N/A   Clear
6:54 PM 48.9 °F - 33.1 °F 54% 30.26 in 10.0 mi Calm Calm - N/A   Clear
7:54 PM 46.9 °F - 33.1 °F 59% 30.28 in 10.0 mi Calm Calm - N/A   Clear
8:54 PM 44.1 °F - 34.0 °F 68% 30.29 in 10.0 mi Calm Calm - N/A   Clear
9:54 PM 39.0 °F 36.8 °F 32.0 °F 76% 30.30 in 10.0 mi SE 3.5 mph - N/A   Clear
10:54 PM 39.0 °F - 33.1 °F 79% 30.30 in 10.0 mi Calm Calm - N/A   Clear
11:54 PM 37.0 °F - 32.0 °F 82% 30.30 in 10.0 mi Calm Calm - N/A   Clear